Location: Kerguer�zec
(48.4509°N, 4.7600°W)
Time: 18:42:22
(UTC+00:00)

SL-24 R/B - Pass Details

Date: 09 April 2020
Orbit: 505 x 1003 km, 97.4° (Epoch: 02 June)

Event Time Altitude Azimuth Distance (km) Brightness Sun altitude
Rises 20:25:02 0° 12° (NNE) 2,864 7.7 -13.6°
Reaches altitude 10° 20:27:18 10° 12° (NNE) 1,894 6.8 -14.0°
Maximum altitude 20:31:21 88° 286° (WNW) 544 3.7 -14.5°
Drops below altitude 10° 20:35:02 10° 195° (SSW) 1,735 6.2 -15.1°
Sets 20:37:03 0° 195° (SSW) 2,599 7.1 -15.4°
